Regional Weather Roundup
Issued by NWS

Home | Current Version | Previous Version | Graphics & Text | Print | Product List | Glossary Off
Versions: 1 2 3 4 5 6 7 8 9 10 11 12 13 14 15 16 17 18 19 20 21 22 23 24 25 26 27

000
ASUS45 KBOU 241807
RWRCO

WEATHER ROUNDUP FOR COLORADO
NATIONAL WEATHER SERVICE DENVER/BOULDER CO
1200 PM MDT SUN SEP 24 2017

NOTE: "FAIR" INDICATES FEW OR NO CLOUDS BELOW 12000 FEET WITH NO
SIGNIFICANT WEATHER AND/OR OBSTRUCTIONS TO VISIBILITY.

COZ001>005-013-030-031-241900-
...NORTHWEST COLORADO...

CITY           SKY/WX    TMP DP  RH WIND       PRES   REMARKS
CRAIG          PTSUNNY   53  38  56 VRB7      29.92F
HAYDEN         PTSUNNY   50  34  54 NW7       29.94S
MEEKER         PTSUNNY   55  33  43 S15G26    29.92F
RABBIT EARS PA FAIR      39  32  75 CALM      30.04S
STEAMBOAT SPGS PTSUNNY   52  34  49 W9        29.92S
WALDEN         CLOUDY    37  36  93 CALM      30.00S
$$

COZ006>008-011-241900-
...WEST CENTRAL VALLEYS...

CITY           SKY/WX    TMP DP  RH WIND       PRES   REMARKS
GRAND JUNCTION FAIR      57  38  48 NW15      29.93R
MONTROSE       FAIR      57  34  41 N12       29.93S
EAGLE          FAIR      49  39  68 VRB5      29.94F
RIFLE          FAIR      57  38  48 W17       29.90F
DELTA          NOT AVBL
NUCLA          FAIR      55  27  33 SW17G30   30.00S
$$

COZ017>023-064>068-241900-
...SOUTHWEST COLORADO...

CITY           SKY/WX    TMP DP  RH WIND       PRES   REMARKS
DURANGO        FAIR      55  25  31 S10G18    30.02S
CORTEZ         FAIR      56  30  37 SW10      29.99R
PAGOSA SPRINGS FAIR      51  19  27 S7        30.05F
TELLURIDE      PTSUNNY   46  19  34 SE7G20    30.05R
WOLF CREEK PAS FAIR      32  25  74 S16G26    30.20R WCI  21
$$

COZ009-010-012-014-032>034-037-058>063-241900-
...CENTRAL COLORADO...

CITY           SKY/WX    TMP DP  RH WIND       PRES   REMARKS
ASPEN          FAIR      54  33  45 CALM      29.90F
BUENA VISTA    FAIR      55  26  33 SE16      29.98F
COPPER MTN     FAIR      43  21  42 SE18G24   30.09S
BERTHOUD PASS  HAZE      27  18  69 SE30G39   30.12S VSB<1/4 WCI  10
COTTONWOOD PAS FAIR      52  30  43 SE20G33   30.04S
GUNNISON       FAIR      57  14  18 VRB3G16   29.92F
KREMMLING      FAIR      55  37  50 CALM      29.94F
LEADVILLE      FAIR      45  18  34 S21G26    30.00S
MONARCH PASS   FAIR      36  23  60 S15G22    30.23S
SALIDA         FAIR      59  28  31 S16G28    30.05S
SUNLIGHT       PTSUNNY   41  30  65 SW9G21    30.07S
WILKERSON PASS PTSUNNY   37  32  81 SW12G24   30.15S
$$

COZ069>075-241900-
...SAN LUIS VALLEY/SANGRE DE CRISTO MOUNTAINS...

CITY           SKY/WX    TMP DP  RH WIND       PRES   REMARKS
ALAMOSA        FAIR      60  20  21 S20G32    29.99F
DEL NORTE      FAIR      54  25  31 N6        30.00F
LA VETA PASS   FAIR      52  32  46 S8G24     30.23S
SAGUACHE       FAIR      54  23  30 S14G21    30.00F
$$

COZ035-036-038>040-241900-
...NORTHERN COLORADO FRONT RANGE...

CITY           SKY/WX    TMP DP  RH WIND       PRES   REMARKS
DENVER INTL AP CLOUDY    48  45  89 NE13      30.00F FOG
DMNS CITY PARK   N/A     48  48  98 E18       29.99F
AURORA         DRIZZLE   48  48 100 NE10      30.00F FOG
FRONT RANGE AP CLOUDY    48  46  93 NE10      30.02S FOG
ERIE MUNI ARPT CLOUDY    50  46  87 NE6       30.05F
BOULDER MUN AP RAIN      48  46  93 NE7       30.00S
CENTENNIAL     DRIZZLE   48  46  93 NE6       29.99F
BROOMFIELD     DRIZZLE   48  46  93 NE6       30.01F
FORT COLLINS   CLOUDY    48  45  89 E13       30.02S
LONGMONT       CLOUDY    51  48  90 E9        30.02F FOG
$$

COZ041-046-047-076>085-087-088-241900-
...PIKES PEAK/PALMER DIVIDE AND SOUTHERN FOOTHILLS...

CITY           SKY/WX    TMP DP  RH WIND       PRES   REMARKS
COLO. SPRINGS  PTSUNNY   52  47  83 SE10      30.00F
A. F. ACADEMY  CLOUDY    52  45  76 S7        29.99F
SCHRIEVER AFB  PTSUNNY   50  48  93 MISG      30.01S
CHEYENNE MTN   CLOUDY    47  46  95 SE8       29.97S
ELLICOTT       LGT SNOW N/A N/A N/A E10       29.99F
FALCON         LGT RAIN  48  47  95 SE8       30.02F
FORT CARSON    CLOUDY    52  48  87 SE9       29.99S
LIMON            N/A    N/A N/A N/A MISG      30.01S
MONUMENT HILL  CLOUDY    45  45 100 E10       30.03F
CANON CITY     CLOUDY    54  52  94 E8        29.98S
WALSENBURG     CLOUDY    57  48  72 E5        29.98F
TRINIDAD       CLOUDY    51  48  89 VRB3      29.98F
$$

COZ042>045-048>051-090-091-241900-
...NORTHEAST COLORADO...

CITY           SKY/WX    TMP DP  RH WIND       PRES   REMARKS
GREELEY ARPT   LGT RAIN  47  46  97 E10       30.02F
AKRON          LGT RAIN  47  44  90 NE10      30.02R FOG
BURLINGTON     CLOUDY    50  49  96 N9        30.00S
WRAY           CLOUDY    50  48  93 NE9       30.01S
YUMA           CLOUDY    46  45  93 NE9G16    30.01R FOG
STERLING       CLOUDY    50  45  81 NE8       30.00S
HOLYOKE        CLOUDY    54  46  76 NE10      30.01S
FORT MORGAN    CLOUDY    50  42  73 NE8       30.02S
$$

COZ086-089-092>099-241900-
...SOUTHEAST COLORADO...

CITY           SKY/WX    TMP DP  RH WIND       PRES   REMARKS
PUEBLO         CLOUDY    53  50  89 SE3       29.97F
LA JUNTA       CLOUDY    57  54  89 NE7       29.96S
LAMAR          CLOUDY    58  56  93 NE10      29.93S
SPRINGFIELD      N/A     57  57 100 N10       29.93F
$$




USA.gov is the U.S. government's official web portal to all federal, state and local government web resources and services.